Location: Marysville Observatory
(48.1092°N, 122.1645°W)
Time: 16:06:56
(UTC-08:00)

Amateur Radio Satellites - All Passes

Search period start: 26 November 2014 15:36
Search period end: 27 November 2014 15:36
Location: Marysville Observatory, 48.1092°N, 122.1645°W

Satellite Date Start Highest point End Downlink Frequencies (MHz)
Time Altitude Azimuth
BEESAT 26 Nov 15:42:41 15:44:48 13° 305° (NW) 15:46:55 436.000
PHONESAT 2.4 26 Nov 15:51:45 15:54:38 22° 168° (SSE) 15:57:32 2401.200-2431.200
O/OREOS (USA 219) 26 Nov 15:53:40 15:58:00 50° 250° (WSW) 16:02:19 437.305
KKS-1 26 Nov 15:57:00 16:00:44 27° 296° (WNW) 16:04:27 437.445
CUTE-I 26 Nov 15:58:55 16:02:29 19° 56° (ENE) 16:06:04 437.470
YUBILEINY 26 Nov 15:59:45 16:04:46 17° 287° (WNW) 16:09:47 435.215
VERMONT LUNAR 26 Nov 15:59:56 16:02:52 23° 174° (S) 16:05:49 437.305
AO-7 26 Nov 16:10:32 16:18:27 48° 260° (W) 16:26:28 29.400- 29.500
MaSat-1 26 Nov 16:11:41 16:13:51 20° 307° (NW) 16:15:55 437.345
STARS 26 Nov 16:52:42 16:54:40 13° 303° (WNW) 16:56:38 437.465
Cubesat XI-IV 26 Nov 16:55:37 17:00:46 49° 68° (ENE) 17:05:55 437.490
MOZHAYETS 4 26 Nov 17:05:46 17:10:25 61° 101° (E) 17:15:01
JAS-2 26 Nov 17:07:39 17:15:11 56° 262° (W) 17:22:55 435.910
PHONESAT 2.4 26 Nov 17:29:46 17:32:50 24° 186° (S) 17:35:54 2401.200-2431.200
RS-15 26 Nov 17:35:03 17:45:56 69° 315° (NW) 17:56:59 29.354- 29.394
CUTE-I 26 Nov 17:36:33 17:41:56 82° 255° (WSW) 17:47:19 437.470
VERMONT LUNAR 26 Nov 17:37:56 17:40:45 21° 191° (S) 17:43:34 437.305
HO-68 26 Nov 17:51:29 17:55:43 17° 45° (NE) 17:59:57 435.675
GONETS M04 26 Nov 17:54:36 18:02:21 33° 63° (ENE) 18:10:01
STRAND 1 26 Nov 18:01:22 18:05:00 19° 90° (E) 18:08:36 437.568
PRISM 26 Nov 18:01:51 18:05:56 43° 99° (E) 18:09:57 437.425
Cubesat XI-IV 26 Nov 18:36:35 18:41:05 27° 266° (W) 18:45:37 437.490
MOZHAYETS 4 26 Nov 18:43:56 18:47:13 19° 299° (WNW) 18:50:30
CUBESAT XI-V 26 Nov 18:49:24 18:54:01 54° 100° (E) 18:58:33 437.345
SEEDS 26 Nov 18:52:15 18:54:15 13° 59° (ENE) 18:56:16 437.485
JAS-2 26 Nov 18:59:17 19:01:53 12° 282° (WNW) 19:04:30 435.910
BEESAT 3 26 Nov 19:00:49 19:02:34 12° 109° (ESE) 19:04:19 437.485
BRITE-PL 26 Nov 19:04:22 19:08:00 22° 64° (ENE) 19:11:27 437.365/2234.400
AAUSAT CUBESAT 2 26 Nov 19:07:09 19:09:21 14° 59° (ENE) 19:11:35 437.432
PHONESAT 2.4 26 Nov 19:08:58 19:10:54 14° 202° (SSW) 19:12:51 2401.200-2431.200
AIST 1 26 Nov 19:11:09 19:15:14 38° 92° (E) 19:19:20
BEESAT 2 26 Nov 19:16:00 19:18:35 16° 111° (ESE) 19:21:11 435.950
PCSat 26 Nov 19:16:06 19:21:08 41° 114° (ESE) 19:26:12 145.827
CANX-2 26 Nov 19:19:34 19:23:10 28° 66° (ENE) 19:26:49 2200.000
CUTE-I 26 Nov 19:20:39 19:22:51 12° 274° (W) 19:25:03 437.470
COMPASS 1 26 Nov 19:21:54 19:25:04 21° 63° (ENE) 19:28:15 437.405
DOVE 4 26 Nov 19:24:11 19:27:11 18° 62° (ENE) 19:30:06 437.250
DX 1 26 Nov 19:25:52 19:27:49 13° 56° (ENE) 19:29:45 434.975-435.025
HO-68 26 Nov 19:35:03 19:42:07 64° 67° (ENE) 19:49:13 435.675
PRISM 26 Nov 19:37:56 19:41:15 22° 297° (WNW) 19:44:32 437.425
STRAND 1 26 Nov 19:39:35 19:44:39 64° 289° (WNW) 19:49:40 437.568
RS-15 26 Nov 19:50:51 20:00:39 36° 346° (NNW) 20:10:40 29.354- 29.394
GONETS M04 26 Nov 19:51:10 19:59:56 69° 267° (W) 20:08:36
CINEMA 3 26 Nov 19:53:26 19:56:38 21° 64° (ENE) 19:59:47 145.822/145.860
CUTE 1.7 + AOD 2 26 Nov 19:53:28 19:57:36 56° 72° (ENE) 20:01:46 437.475
AIST 2 26 Nov 19:53:40 19:56:46 20° 113° (ESE) 19:59:54 435.215
ZACube-1 26 Nov 19:55:51 19:57:04 11° 57° (ENE) 19:58:17 437.345
GOMX 1 26 Nov 20:08:23 20:12:59 59° 73° (ENE) 20:17:19 467.674
UKube-1 26 Nov 20:22:54 20:26:57 39° 68° (ENE) 20:31:02 .
AISAT 26 Nov 20:25:15 20:28:06 17° 59° (ENE) 20:30:58 437.250
SEEDS 26 Nov 20:25:19 20:29:30 79° 257° (WSW) 20:33:45 437.485
CUBESAT XI-V 26 Nov 20:27:37 20:31:06 21° 298° (WNW) 20:34:33 437.345
FUNcube-1 26 Nov 20:28:19 20:31:32 22° 64° (ENE) 20:34:45 145.935
Oscar 11 26 Nov 20:33:21 20:37:32 52° 71° (ENE) 20:41:45 145.826/435.025
BEESAT 3 26 Nov 20:36:01 20:40:09 85° 308° (NW) 20:44:22 437.485
AAUSAT CUBESAT 2 26 Nov 20:40:22 20:44:31 72° 258° (WSW) 20:48:43 437.432
DELFI C3 26 Nov 20:41:08 20:45:06 52° 72° (ENE) 20:49:06 145.870
BRITE-PL 26 Nov 20:41:29 20:46:17 52° 260° (W) 20:50:45 437.365/2234.400
50 SAT 26 Nov 20:48:55 20:51:45 19° 63° (ENE) 20:54:36 437.505
AIST 1 26 Nov 20:49:27 20:53:02 24° 291° (WNW) 20:56:39
BEESAT 2 26 Nov 20:52:15 20:56:23 68° 310° (NW) 21:00:35 435.950
CANX-2 26 Nov 20:55:16 20:59:03 32° 264° (W) 21:02:53 2200.000
UWE-3 26 Nov 20:55:48 20:59:50 46° 71° (ENE) 21:03:50 435.000/436.395/437.385
COMPASS 1 26 Nov 20:56:35 21:00:33 43° 262° (W) 21:04:35 437.405
CUBEBUG 2 26 Nov 20:57:24 21:01:33 55° 72° (ENE) 21:05:38 437.445
DX 1 26 Nov 20:59:01 21:03:24 90° 267° (W) 21:07:49 434.975-435.025
PCSat 26 Nov 20:59:29 21:04:35 40° 315° (NW) 21:09:43 145.827
DOVE 4 26 Nov 21:00:10 21:04:39 57° 259° (W) 21:08:55 437.250
HUMSAT D 26 Nov 21:05:22 21:09:02 32° 68° (ENE) 21:12:42 437.325/437.525
STRAND 1 26 Nov 21:21:16 21:22:52 11° 309° (NW) 21:24:28 437.568
HO-68 26 Nov 21:24:08 21:30:17 30° 266° (W) 21:36:29 435.675
ZACube-1 26 Nov 21:28:36 21:32:48 87° 76° (ENE) 21:36:59 437.345
CINEMA 3 26 Nov 21:29:27 21:33:38 45° 261° (W) 21:37:42 145.822/145.860
AIST 2 26 Nov 21:30:50 21:35:02 58° 312° (NW) 21:39:18 435.215
CUTE 1.7 + AOD 2 26 Nov 21:31:16 21:33:54 16° 270° (W) 21:36:34 437.475
VELOX 1 26 Nov 21:32:55 21:37:21 67° 73° (ENE) 21:41:48 145.980
ESTCUBE 1 26 Nov 21:35:27 21:39:26 30° 65° (ENE) 21:43:25 437.505/2401.250
TISAT 1 26 Nov 21:44:14 21:45:10 11° 56° (NE) 21:46:07 437.305
GOMX 1 26 Nov 21:48:25 21:51:27 17° 269° (W) 21:54:23 467.674
GONETS M04 26 Nov 21:50:26 21:54:59 15° 289° (WNW) 21:59:32
NANOSAT C BR1 26 Nov 21:53:05 21:54:32 12° 88° (E) 21:55:59 145.865
SPROUT 26 Nov 21:56:06 21:57:55 12° 57° (ENE) 21:59:43 437.525
UKube-1 26 Nov 21:59:43 22:03:15 24° 266° (W) 22:06:50 .
AISAT 26 Nov 21:59:49 22:04:16 67° 258° (WSW) 22:08:45 437.250
QB50P1 26 Nov 22:02:19 22:04:43 15° 90° (E) 22:07:06 145.935-145.965
FUNcube-1 26 Nov 22:03:44 22:07:42 41° 262° (W) 22:11:39 145.935
RS-15 26 Nov 22:06:35 22:16:43 39° 20° (NNE) 22:27:09 29.354- 29.394
BUGSAT 1 26 Nov 22:08:12 22:10:12 13° 89° (E) 22:12:11 437.445
CUBEBUG 1 26 Nov 22:09:05 22:13:27 59° 72° (ENE) 22:17:50 437.445
TIGRISAT 26 Nov 22:11:06 22:14:50 26° 95° (E) 22:18:37 435.000
Oscar 11 26 Nov 22:11:06 22:14:02 18° 269° (W) 22:16:59 145.826/435.025
BEESAT 3 26 Nov 22:16:05 22:19:01 18° 329° (NNW) 22:21:58 437.485
DELFI C3 26 Nov 22:18:10 22:20:45 16° 270° (W) 22:23:20 145.870
50 SAT 26 Nov 22:22:54 22:26:47 46° 261° (W) 22:30:41 437.505
UNISAT 6 26 Nov 22:25:04 22:29:11 36° 97° (E) 22:33:22 437.425
POPSAT HIP 1 26 Nov 22:26:24 22:29:56 25° 94° (E) 22:33:26 437.405
BEESAT 2 26 Nov 22:32:49 22:35:28 16° 332° (NNW) 22:38:07 435.950
UWE-3 26 Nov 22:33:41 22:36:39 19° 268° (W) 22:39:37 435.000/436.395/437.385
CUBEBUG 2 26 Nov 22:36:01 22:38:37 16° 270° (W) 22:41:13 437.445
DX 1 26 Nov 22:39:25 22:40:18 11° 273° (W) 22:41:12 434.975-435.025
HUMSAT D 26 Nov 22:41:23 22:44:53 26° 265° (W) 22:48:24 437.325/437.525
PCSat 26 Nov 22:46:43 22:49:32 14° 338° (NNW) 22:52:21 145.827
ISS 26 Nov 22:50:33 22:52:53 18° 138° (SE) 22:55:13 145.825
ANTELSAT 26 Nov 22:53:46 22:58:13 70° 102° (ESE) 23:02:44 437.575/2403.000
CUSAT 1 26 Nov 22:56:49 23:01:01 39° 75° (ENE) 23:06:30 437.405
ITUPSAT 1 26 Nov 22:57:30 22:59:22 12° 54° (NE) 23:01:14 437.325
POLYITAN 1 26 Nov 23:00:11 23:04:21 56° 101° (E) 23:08:31 437.675
QB50P2 26 Nov 23:01:47 23:05:59 59° 101° (E) 23:10:09 145.880/145.840
SWISSCUBE 26 Nov 23:06:53 23:09:43 16° 57° (ENE) 23:12:34 437.505
DUCHIFAT 1 26 Nov 23:07:09 23:11:21 66° 102° (ESE) 23:15:32 145.980
AUBIESAT-1 26 Nov 23:10:30 23:14:01 25° 56° (ENE) 23:17:45 437.475
VELOX 1 26 Nov 23:11:49 23:14:24 15° 270° (W) 23:17:00 145.980
AIST 2 26 Nov 23:12:01 23:14:34 15° 334° (NNW) 23:17:08 435.215
ESTCUBE 1 26 Nov 23:12:06 23:16:15 34° 264° (W) 23:20:26 437.505/2401.250
TISAT 1 26 Nov 23:16:01 23:20:17 78° 74° (ENE) 23:24:34 437.305
M-CUBED/EXP-1 PRIME 26 Nov 23:16:12 23:19:55 30° 58° (ENE) 23:23:54 437.505
NANOSAT C BR1 26 Nov 23:26:45 23:31:00 78° 286° (WNW) 23:35:12 145.865
DANDE 26 Nov 23:27:05 23:31:20 59° 77° (ENE) 23:37:05 436.750
SPROUT 26 Nov 23:29:02 23:33:22 89° 256° (WSW) 23:37:42 437.525
BEESAT 26 Nov 23:36:24 23:40:18 25° 62° (ENE) 23:44:13 436.000
QB50P1 26 Nov 23:36:51 23:41:02 62° 288° (WNW) 23:45:12 145.935-145.965
BUGSAT 1 26 Nov 23:42:06 23:46:11 64° 287° (WNW) 23:50:11 437.445
CUBEBUG 1 26 Nov 23:47:19 23:50:13 17° 270° (W) 23:53:07 437.445
TIGRISAT 26 Nov 23:47:37 23:51:41 37° 292° (WNW) 23:55:49 435.000
POPSAT HIP 1 27 Nov 00:02:04 00:05:56 35° 292° (WNW) 00:09:45 437.405
UNISAT 6 27 Nov 00:02:07 00:05:53 28° 295° (WNW) 00:09:43 437.425
MaSat-1 27 Nov 00:11:32 00:13:48 56° 242° (WSW) 00:16:07 437.345
RS-15 27 Nov 00:19:45 00:30:58 80° 50° (NE) 00:42:40 29.354- 29.394
ISS 27 Nov 00:25:52 00:29:10 87° 153° (SSE) 00:32:28 145.825
ITUPSAT 1 27 Nov 00:31:38 00:36:26 74° 73° (ENE) 00:41:16 437.325
ANTELSAT 27 Nov 00:31:49 00:34:33 16° 300° (WNW) 00:37:19 437.575/2403.000
PCSat 27 Nov 00:34:54 00:35:31 10° 5° (N) 00:36:09 145.827
POLYITAN 1 27 Nov 00:37:07 00:39:56 18° 299° (WNW) 00:42:45 437.675
QB50P2 27 Nov 00:38:45 00:41:30 17° 299° (WNW) 00:44:15 145.880/145.840
CUSAT 1 27 Nov 00:40:06 00:44:07 29° 265° (W) 00:49:13 437.405
STARS 27 Nov 00:40:44 00:43:29 17° 59° (ENE) 00:46:15 437.465
SWISSCUBE 27 Nov 00:42:09 00:46:58 83° 256° (WSW) 00:51:49 437.505
DUCHIFAT 1 27 Nov 00:44:16 00:46:46 16° 300° (WNW) 00:49:15 145.980
AUBIESAT-1 27 Nov 00:44:46 00:48:45 44° 257° (WSW) 00:53:07 437.475
M-CUBED/EXP-1 PRIME 27 Nov 00:51:02 00:54:52 35° 259° (W) 00:59:03 437.505
TISAT 1 27 Nov 00:55:05 00:56:41 12° 272° (W) 00:58:16 437.305
NANOSAT C BR1 27 Nov 01:05:23 01:06:09 10° 304° (NW) 01:06:54 145.865
SPROUT 27 Nov 01:09:45 01:10:07 10° 274° (W) 01:10:28 437.525
YUBILEINY 27 Nov 01:11:15 01:18:18 28° 80° (E) 01:25:19 435.215
DANDE 27 Nov 01:11:35 01:14:44 18° 268° (W) 01:18:29 436.750
BEESAT 27 Nov 01:13:18 01:17:55 47° 261° (W) 01:22:34 436.000
KKS-1 27 Nov 01:21:47 01:26:07 53° 71° (ENE) 01:30:27 437.445
Gurwin Techsat 1B 27 Nov 01:22:25 01:23:45 11° 84° (E) 01:25:06 435.225
Oscar 19 27 Nov 01:24:48 01:29:47 46° 99° (E) 01:34:44 437.125/150
BEESAT 3 27 Nov 01:38:28 01:39:11 10° 17° (NNE) 01:39:55 437.485
BEESAT 2 27 Nov 01:54:21 01:55:50 12° 20° (NNE) 01:57:18 435.950
ISS 27 Nov 02:02:50 02:06:01 43° 356° (N) 02:09:11 145.825
ITUPSAT 1 27 Nov 02:12:04 02:14:52 15° 271° (W) 02:17:42 437.325
STARS 27 Nov 02:15:08 02:19:30 67° 258° (WSW) 02:23:54 437.465
PCSat 27 Nov 02:17:17 02:21:14 20° 31° (NNE) 02:25:10 145.827
ITAMSAT 1 27 Nov 02:20:23 02:25:30 56° 101° (E) 02:30:35 435.822/435.867
SWISSCUBE 27 Nov 02:24:17 02:25:36 11° 274° (W) 02:26:55 437.505
HORYU 2 27 Nov 02:28:06 02:31:08 18° 91° (E) 02:34:09 437.375
RS-15 27 Nov 02:32:47 02:42:23 35° 253° (WSW) 02:52:22 29.354- 29.394
AIST 2 27 Nov 02:33:36 02:35:41 13° 23° (NNE) 02:37:45 435.215
MOZHAYETS 4 27 Nov 02:37:19 02:39:20 13° 56° (NE) 02:41:22
Gurwin Techsat 1B 27 Nov 02:59:19 03:04:39 74° 103° (ESE) 03:09:57 435.225
KKS-1 27 Nov 02:59:58 03:03:05 19° 269° (W) 03:06:13 437.445
Oscar 19 27 Nov 03:04:33 03:08:56 29° 297° (WNW) 03:13:18 437.125/150
YUBILEINY 27 Nov 03:05:28 03:14:17 75° 282° (WNW) 03:23:05 435.215
BEESAT 3 27 Nov 03:15:00 03:18:45 30° 40° (NE) 03:22:28 437.485
SO-50 27 Nov 03:21:31 03:25:46 41° 119° (ESE) 03:30:09 436.795
BEESAT 2 27 Nov 03:31:23 03:35:19 36° 42° (NE) 03:39:13 435.950
ISS 27 Nov 03:39:42 03:42:59 61° 16° (NNE) 03:46:15 145.825
PCSat 27 Nov 04:00:09 04:05:36 73° 54° (NE) 04:11:01 145.827
ITAMSAT 1 27 Nov 04:00:33 04:04:39 24° 300° (WNW) 04:08:43 435.822/435.867
HORYU 2 27 Nov 04:03:45 04:08:11 57° 289° (WNW) 04:12:35 437.375
AO-7 27 Nov 04:07:22 04:15:28 50° 101° (E) 04:23:30 29.400- 29.500
MOZHAYETS 4 27 Nov 04:11:13 04:15:50 85° 75° (ENE) 04:20:30
AIST 2 27 Nov 04:11:15 04:15:25 43° 45° (NE) 04:19:31 435.215
JAS-2 27 Nov 04:15:10 04:20:35 23° 86° (E) 04:25:32 435.910
CUBESAT XI-V 27 Nov 04:22:20 04:24:16 12° 56° (NE) 04:26:12 437.345
O/OREOS (USA 219) 27 Nov 04:33:25 04:34:53 11° 97° (E) 04:36:20 437.305
Gurwin Techsat 1B 27 Nov 04:40:20 04:44:04 20° 302° (WNW) 04:47:47 435.225
BEESAT 3 27 Nov 04:53:07 04:57:07 43° 240° (WSW) 05:01:03 437.485
PRISM 27 Nov 04:56:05 05:00:11 52° 71° (ENE) 05:04:20 437.425
SO-50 27 Nov 05:02:09 05:06:23 36° 320° (NW) 05:10:46 436.795
YUBILEINY 27 Nov 05:06:52 05:12:51 20° 306° (NW) 05:18:51 435.215
BEESAT 2 27 Nov 05:09:47 05:13:35 33° 242° (WSW) 05:17:21 435.950
Cubesat XI-IV 27 Nov 05:10:47 05:13:35 14° 87° (E) 05:16:21 437.490
AIST 1 27 Nov 05:15:38 05:18:18 16° 65° (ENE) 05:20:56
ISS 27 Nov 05:16:29 05:19:31 34° 215° (SW) 05:22:32 145.825
STRAND 1 27 Nov 05:20:22 05:25:09 40° 66° (ENE) 05:29:57 437.568
PCSat 27 Nov 05:44:33 05:48:28 21° 253° (WSW) 05:52:21 145.827
AIST 2 27 Nov 05:50:13 05:53:54 28° 244° (WSW) 05:57:31 435.215
CUTE-I 27 Nov 05:50:28 05:55:09 30° 95° (E) 05:59:47 437.470
MOZHAYETS 4 27 Nov 05:51:50 05:53:43 12° 274° (W) 05:55:36
CUBESAT XI-V 27 Nov 05:56:13 06:00:56 79° 75° (ENE) 06:05:41 437.345
JAS-2 27 Nov 05:59:16 06:06:31 75° 289° (WNW) 06:12:51 435.910
AO-7 27 Nov 06:00:23 06:08:14 47° 302° (WNW) 06:16:04 29.400- 29.500
O/OREOS (USA 219) 27 Nov 06:09:04 06:13:34 87° 295° (WNW) 06:18:04 437.305
PRISM 27 Nov 06:33:14 06:36:03 17° 269° (W) 06:38:55 437.425
SO-50 27 Nov 06:45:59 06:48:20 14° 344° (NNW) 06:50:42 436.795
Cubesat XI-IV 27 Nov 06:49:03 06:54:25 88° 285° (WNW) 06:59:44 437.490
AIST 1 27 Nov 06:52:05 06:56:27 63° 264° (W) 07:00:44
STRAND 1 27 Nov 06:59:54 07:04:26 31° 265° (W) 07:09:00 437.568
GONETS M04 27 Nov 07:01:12 07:08:33 31° 81° (E) 07:15:56
CUTE-I 27 Nov 07:30:20 07:35:21 43° 293° (WNW) 07:40:20 437.470
CUBESAT XI-V 27 Nov 07:36:34 07:38:58 14° 273° (W) 07:41:23 437.345
JAS-2 27 Nov 07:45:34 07:50:17 19° 311° (NW) 07:54:41 435.910
O/OREOS (USA 219) 27 Nov 07:51:07 07:53:41 15° 316° (NW) 07:56:15 437.305
AO-7 27 Nov 07:54:50 07:59:01 15° 325° (NW) 08:03:12 29.400- 29.500
SEEDS 27 Nov 08:08:01 08:10:20 14° 89° (E) 08:12:40 437.485
GOMX 1 27 Nov 08:08:46 08:09:55 11° 88° (E) 08:11:04 467.674
AAUSAT CUBESAT 2 27 Nov 08:21:48 08:24:15 15° 89° (E) 08:26:42 437.432
ANTELSAT 27 Nov 08:23:03 08:24:52 13° 57° (ENE) 08:26:41 437.575/2403.000
SO-50 27 Nov 08:29:18 08:30:58 12° 9° (N) 08:32:39 436.795
Cubesat XI-IV 27 Nov 08:30:34 08:33:47 16° 305° (NW) 08:36:59 437.490
DUCHIFAT 1 27 Nov 08:31:34 08:32:29 11° 56° (NE) 08:33:25 145.980
CANX-2 27 Nov 08:36:57 08:40:52 34° 96° (E) 08:44:47 2200.000
COMPASS 1 27 Nov 08:37:22 08:40:50 24° 93° (E) 08:44:17 437.405
BRITE-PL 27 Nov 08:42:43 08:46:29 33° 96° (E) 08:50:16 437.365/2234.400
DX 1 27 Nov 08:46:05 08:47:46 12° 88° (E) 08:49:27 434.975-435.025
HO-68 27 Nov 08:46:22 08:53:16 47° 99° (E) 09:00:05 435.675
NANOSAT C BR1 27 Nov 08:49:22 08:51:56 16° 60° (ENE) 08:54:30 145.865
DOVE 4 27 Nov 08:55:55 08:59:26 26° 95° (E) 09:03:01 437.250
GONETS M04 27 Nov 08:55:55 09:04:42 69° 283° (WNW) 09:13:34
QB50P1 27 Nov 08:58:56 09:01:58 19° 62° (ENE) 09:04:59 145.935-145.965
BUGSAT 1 27 Nov 09:01:58 09:04:47 18° 61° (ENE) 09:07:36 437.445
CUTE 1.7 + AOD 2 27 Nov 09:11:11 09:15:29 70° 102° (ESE) 09:19:47 437.475
TIGRISAT 27 Nov 09:13:47 09:17:38 35° 68° (ENE) 09:21:31 435.000
ZACube-1 27 Nov 09:15:28 09:17:27 13° 89° (E) 09:19:27 437.345
CINEMA 3 27 Nov 09:20:44 09:24:26 29° 96° (E) 09:28:13 145.822/145.860
POPSAT HIP 1 27 Nov 09:23:03 09:26:48 31° 67° (ENE) 09:30:34 437.405
UNISAT 6 27 Nov 09:28:00 09:32:06 48° 70° (ENE) 09:36:14 437.425
SEEDS 27 Nov 09:42:22 09:46:37 65° 287° (WNW) 09:50:52 437.485
UKube-1 27 Nov 09:43:11 09:47:20 43° 99° (E) 09:51:27 .
GOMX 1 27 Nov 09:44:28 09:48:38 78° 285° (WNW) 09:52:52 467.674
AISAT 27 Nov 09:48:30 09:51:35 18° 91° (E) 09:54:39 437.250
FUNcube-1 27 Nov 09:48:48 09:52:27 27° 95° (E) 09:56:08 145.935
Oscar 11 27 Nov 09:53:12 09:57:33 66° 102° (ESE) 10:01:53 145.826/435.025
DELFI C3 27 Nov 09:53:40 09:57:46 57° 101° (E) 10:01:51 145.870
AAUSAT CUBESAT 2 27 Nov 09:56:10 10:00:21 61° 287° (WNW) 10:04:32 437.432
ANTELSAT 27 Nov 09:56:46 10:01:03 86° 256° (WSW) 10:05:21 437.575/2403.000
POLYITAN 1 27 Nov 09:57:00 10:01:14 69° 73° (ENE) 10:05:28 437.675
QB50P2 27 Nov 09:58:23 10:02:37 72° 74° (ENE) 10:06:52 145.880/145.840
50 SAT 27 Nov 10:00:57 10:03:53 19° 92° (E) 10:06:48 437.505
DUCHIFAT 1 27 Nov 10:03:24 10:07:39 79° 74° (ENE) 10:11:54 145.980
SO-50 27 Nov 10:09:18 10:13:14 24° 33° (NNE) 10:17:13 436.795
COMPASS 1 27 Nov 10:12:45 10:16:42 38° 291° (WNW) 10:20:38 437.405
CANX-2 27 Nov 10:13:05 10:16:44 28° 294° (WNW) 10:20:23 2200.000
UWE-3 27 Nov 10:18:27 10:22:40 64° 102° (ESE) 10:26:58 435.000/436.395/437.385
DX 1 27 Nov 10:20:13 10:24:36 79° 286° (WNW) 10:28:55 434.975-435.025
CUBEBUG 2 27 Nov 10:21:26 10:25:42 79° 103° (ESE) 10:30:02 437.445
BRITE-PL 27 Nov 10:21:31 10:24:57 25° 295° (WNW) 10:28:23 437.365/2234.400
HUMSAT D 27 Nov 10:21:50 10:25:43 37° 97° (E) 10:29:38 437.325/437.525
NANOSAT C BR1 27 Nov 10:23:08 10:27:22 65° 258° (WSW) 10:31:36 145.865
QB50P1 27 Nov 10:33:23 10:37:32 51° 260° (W) 10:41:42 145.935-145.965
DOVE 4 27 Nov 10:33:33 10:37:18 33° 292° (WNW) 10:41:07 437.250
HO-68 27 Nov 10:34:16 10:40:56 43° 299° (WNW) 10:47:33 435.675
BUGSAT 1 27 Nov 10:35:43 10:39:55 57° 259° (W) 10:44:05 437.445
CUTE 1.7 + AOD 2 27 Nov 10:48:27 10:50:55 15° 300° (WNW) 10:53:24 437.475
ZACube-1 27 Nov 10:50:06 10:54:19 71° 286° (WNW) 10:58:36 437.345
TIGRISAT 27 Nov 10:50:56 10:54:29 26° 266° (W) 10:58:04 435.000
VELOX 1 27 Nov 10:56:50 11:01:18 83° 104° (ESE) 11:05:42 145.980
GONETS M04 27 Nov 10:57:52 11:03:31 18° 308° (NW) 11:09:12
CINEMA 3 27 Nov 10:57:58 11:01:40 30° 293° (WNW) 11:05:27 145.822/145.860
POPSAT HIP 1 27 Nov 10:59:01 11:02:43 29° 265° (W) 11:06:26 437.405
ESTCUBE 1 27 Nov 11:01:07 11:05:24 38° 97° (E) 11:09:37 437.505/2401.250
UNISAT 6 27 Nov 11:06:13 11:09:12 19° 269° (W) 11:12:13 437.425
Oscar 19 27 Nov 11:08:42 11:11:44 16° 56° (NE) 11:14:46 437.125/150
SPROUT 27 Nov 11:14:15 11:16:10 13° 88° (E) 11:18:04 437.525
YUBILEINY 27 Nov 11:15:42 11:21:13 18° 52° (NE) 11:26:41 435.215
UKube-1 27 Nov 11:19:51 11:23:17 23° 297° (WNW) 11:26:42 .
AISAT 27 Nov 11:24:14 11:28:33 53° 289° (WNW) 11:32:51 437.250
FUNcube-1 27 Nov 11:25:04 11:28:51 33° 292° (WNW) 11:32:41 145.935
DELFI C3 27 Nov 11:30:00 11:32:40 17° 299° (WNW) 11:35:20 145.870
Oscar 11 27 Nov 11:30:33 11:33:15 16° 300° (WNW) 11:35:57 145.826/435.025
CUBEBUG 1 27 Nov 11:31:02 11:35:26 73° 103° (ESE) 11:39:45 437.445
50 SAT 27 Nov 11:35:32 11:39:25 44° 290° (WNW) 11:43:18 437.505
POLYITAN 1 27 Nov 11:35:37 11:37:41 13° 271° (W) 11:39:45 437.675
QB50P2 27 Nov 11:37:06 11:39:03 13° 271° (W) 11:41:01 145.880/145.840
DUCHIFAT 1 27 Nov 11:42:35 11:44:05 12° 272° (W) 11:45:34 145.980
SO-50 27 Nov 11:49:29 11:54:22 82° 233° (SW) 11:59:16 436.795
UWE-3 27 Nov 11:56:13 11:58:48 16° 299° (WNW) 12:01:24 435.000/436.395/437.385
HUMSAT D 27 Nov 11:58:01 12:01:24 24° 295° (WNW) 12:04:47 437.325/437.525
DX 1 27 Nov 11:58:48 12:00:06 11° 305° (NW) 12:01:24 434.975-435.025
CUBEBUG 2 27 Nov 11:59:49 12:01:53 13° 301° (WNW) 12:03:57 437.445
ITAMSAT 1 27 Nov 12:04:29 12:08:15 21° 58° (ENE) 12:12:01 435.822/435.867
CUSAT 1 27 Nov 12:15:51 12:17:43 18° 92° (E) 12:19:38 437.405
HO-68 27 Nov 12:24:42 12:26:49 12° 322° (NW) 12:28:57 435.675
AUBIESAT-1 27 Nov 12:25:26 12:27:47 13° 92° (E) 12:30:07 437.475
ITUPSAT 1 27 Nov 12:30:18 12:33:01 15° 89° (E) 12:35:43 437.325
M-CUBED/EXP-1 PRIME 27 Nov 12:31:14 12:34:22 17° 94° (E) 12:37:27 437.505
TISAT 1 27 Nov 12:33:30 12:37:45 88° 104° (ESE) 12:41:57 437.305
VELOX 1 27 Nov 12:35:01 12:37:16 14° 303° (WNW) 12:39:32 145.980
ESTCUBE 1 27 Nov 12:38:18 12:42:08 27° 296° (WNW) 12:45:56 437.505/2401.250
SWISSCUBE 27 Nov 12:39:59 12:43:31 20° 91° (E) 12:47:00 437.505
Oscar 19 27 Nov 12:45:16 12:50:23 88° 255° (WSW) 12:55:33 437.125/150
Gurwin Techsat 1B 27 Nov 12:45:29 12:49:51 27° 61° (ENE) 12:54:14 435.225
DANDE 27 Nov 12:48:21 12:50:53 42° 98° (E) 12:53:24 436.750
SPROUT 27 Nov 12:48:30 12:52:47 73° 286° (WNW) 12:57:02 437.525
CUBEBUG 1 27 Nov 13:08:46 13:11:16 15° 301° (WNW) 13:13:45 437.445
BEESAT 27 Nov 13:10:07 13:14:30 34° 96° (E) 13:18:51 436.000
YUBILEINY 27 Nov 13:11:16 13:19:59 68° 77° (ENE) 13:28:37 435.215
AO-7 27 Nov 13:20:11 13:26:35 26° 47° (NE) 13:33:01 29.400- 29.500
HORYU 2 27 Nov 13:30:08 13:33:47 26° 64° (ENE) 13:37:28 437.375
SO-50 27 Nov 13:31:55 13:34:11 13° 252° (WSW) 13:36:28 436.795
ITAMSAT 1 27 Nov 13:42:03 13:47:15 69° 257° (WSW) 13:52:28 435.822/435.867
VERMONT LUNAR 27 Nov 13:46:38 13:47:53 11° 155° (SSE) 13:49:07 437.305
AUBIESAT-1 27 Nov 13:58:28 14:03:26 89° 108° (ESE) 14:08:16 437.475
CUSAT 1 27 Nov 13:59:38 14:00:54 13° 294° (WNW) 14:02:11 437.405
STARS 27 Nov 14:02:39 14:05:40 18° 91° (E) 14:08:39 437.465
M-CUBED/EXP-1 PRIME 27 Nov 14:04:57 14:09:55 76° 292° (WNW) 14:14:46 437.505
ITUPSAT 1 27 Nov 14:06:40 14:11:29 75° 287° (WNW) 14:16:16 437.325
TISAT 1 27 Nov 14:11:18 14:12:57 12° 303° (WNW) 14:14:35 437.305
SWISSCUBE 27 Nov 14:17:01 14:21:44 56° 290° (WNW) 14:26:24 437.505
Gurwin Techsat 1B 27 Nov 14:24:22 14:29:32 52° 260° (W) 14:34:45 435.225
Oscar 19 27 Nov 14:28:12 14:30:29 13° 274° (W) 14:32:47 437.125/150
JAS-2 27 Nov 14:30:52 14:36:22 22° 51° (NE) 14:41:49 435.910
O/OREOS (USA 219) 27 Nov 14:36:23 14:40:40 43° 58° (ENE) 14:44:56 437.305
KKS-1 27 Nov 14:45:59 14:50:26 67° 102° (ESE) 14:54:50 437.445
BEESAT 27 Nov 14:48:02 14:52:19 33° 295° (WNW) 14:56:34 436.000
RS-15 27 Nov 14:49:24 14:58:34 33° 106° (ESE) 15:07:41 29.354- 29.394
HORYU 2 27 Nov 15:06:09 15:10:18 39° 262° (W) 15:14:30 437.375
YUBILEINY 27 Nov 15:08:53 15:16:06 31° 279° (W) 15:23:18 435.215
AO-7 27 Nov 15:10:02 15:18:20 86° 69° (ENE) 15:26:44 29.400- 29.500
MaSat-1 27 Nov 15:16:37 15:19:27 65° 300° (WNW) 15:22:02 437.345
PHONESAT 2.4 27 Nov 15:19:01 15:21:52 21° 167° (SSE) 15:24:43 2401.200-2431.200
VERMONT LUNAR 27 Nov 15:22:41 15:25:35 23° 172° (S) 15:28:30 437.305
